Temperature
11 11 11 11 11 9 8 8 9 9 8 9 9 8 9 9 9 9 8 8 7 7 6 6 5 5 5 5 5 4 4 4 4 4 4 3 3 3 3 3 2 2 2 1
10 10 9 9 9 9 8 8 8 8 8 8 8 8 8 8 8 8 8 7 6 6 5 5 4 4 4 4 4 4 4 4 3 3 3 3 2 2 2 2 1 1 1 0
8 8 9 8 9 9 8 7 7 8 8 7 6 7 8 8 8 7 7 6 5 5 5 4 4 3 3 3 3 3 3 3 3 2 2 2 1 1 1 0 0 -0 -0 -1
7 9 9 10 10 9 8 8 7 7 7 7 7 8 8 8 7 6 6 5 5 4 4 4 3 3 3 3 3 3 2 2 2 1 1 1 0 0 -0 -1 -1 -2 -2 -2
6 7 7 8 8 8 7 7 7 6 6 7 7 6 6 7 6 5 5 4 4 4 4 3 3 3 3 3 2 2 2 1 1 0 0 -0 -1 -1 -1 -2 -2 -2 -3 -3
5 6 7 9 9 9 8 7 6 6 6 6 5 4 5 6 5 5 4 4 4 3 3 3 3 2 2 2 1 1 1 1 0 -0 -1 -1 -2 -2 -2 -3 -3 -4 -4 -4
5 6 7 8 8 8 8 8 7 7 6 6 5 5 5 5 4 4 4 3 3 3 3 3 2 1 1 1 1 0 0 -0 -0 -1 -2 -2 -3 -3 -4 -4 -4 -5 -5 -5
5 5 7 8 7 7 7 7 7 7 6 6 5 5 4 4 4 3 3 3 3 2 2 2 2 1 1 0 0 -0 -0 -1 -1 -2 -2 -3 -3 -4 -4 -5 -5 -6 -6 -6
6 7 7 7 7 7 8 7 6 6 5 5 4 4 4 3 3 3 3 2 2 2 2 2 1 0 -0 -0 -1 -1 -1 -1 -2 -2 -3 -3 -4 -5 -5 -6 -6 -6 -6 -6
4 5 6 6 7 7 7 6 6 5 5 4 4 3 3 3 3 2 2 2 1 1 1 1 1 0 -1 -1 -1 -2 -2 -2 -3 -3 -3 -4 -5 -6 -6 -6 -7 -7 -6 -6
4 4 5 5 6 6 5 5 5 4 4 3 3 3 3 2 2 2 2 1 1 1 0 0 -0 -0 -1 -2 -2 -3 -3 -3 -4 -4 -5 -5 -6 -6 -7 -7 -7 -6 -6 -6
5 5 4 5 6 5 5 4 4 3 3 3 3 2 2 2 2 1 1 1 1 0 -0 -0 -1 -1 -1 -2 -3 -4 -4 -4 -5 -5 -6 -6 -7 -7 -6 -6 -6 -6 -6 -6
5 6 5 5 5 4 4 3 3 3 3 2 2 2 2 1 1 1 1 0 -0 -0 -1 -1 -1 -2 -2 -3 -3 -4 -5 -5 -6 -6 -7 -7 -7 -7 -7 -6 -6 -6 -6 -6
5 5 4 4 4 3 3 3 3 2 2 2 2 2 1 1 1 1 0 -0 -1 -1 -1 -1 -2 -2 -2 -3 -4 -4 -5 -6 -6 -7 -7 -7 -7 -7 -7 -7 -7 -7 -6 -6
4 4 4 3 3 2 2 2 2 2 2 2 2 1 1 1 0 0 -0 -1 -1 -1 -1 -2 -2 -2 -3 -4 -4 -5 -6 -6 -7 -7 -7 -7 -7 -7 -8 -8 -8 -8 -7 -7
3 3 3 2 2 2 2 2 2 2 2 1 1 1 1 0 -0 -0 -1 -1 -2 -2 -2 -2 -3 -3 -3 -4 -5 -6 -6 -6 -7 -8 -8 -7 -7 -8 -8 -8 -8 -8 -8 -7
2 2 2 2 2 2 2 1 1 1 1 1 1 0 -0 -0 -1 -1 -1 -2 -2 -2 -2 -3 -3 -4 -4 -5 -6 -6 -6 -7 -7 -8 -8 -8 -8 -8 -8 -8 -8 -8 -8 -8
2 2 2 2 1 1 1 1 1 1 0 0 -0 -0 -1 -1 -2 -2 -2 -2 -2 -2 -2 -3 -4 -4 -5 -5 -6 -6 -7 -7 -8 -8 -8 -8 -8 -8 -8 -8 -8 -8 -8 -8
2 1 1 1 1 1 1 1 0 0 -0 -0 -1 -1 -1 -2 -2 -2 -3 -3 -3 -3 -3 -4 -4 -5 -5 -6 -6 -7 -7 -8 -8 -8 -8 -8 -8 -8 -8 -8 -8 -8 -8 -8
1 1 1 1 1 0 0 0 -0 -1 -1 -1 -2 -2 -2 -2 -3 -3 -3 -3 -3 -4 -4 -4 -5 -5 -6 -6 -7 -7 -8 -8 -8 -8 -8 -9 -9 -9 -8 -8 -9 -9 -8 -8
1 1 1 0 0 0 -0 -1 -1 -1 -2 -2 -2 -2 -3 -3 -3 -4 -4 -4 -4 -4 -5 -5 -5 -6 -6 -7 -7 -8 -8 -8 -8 -9 -9 -9 -9 -9 -9 -9 -9 -9 -9 -8
0 0 -0 -0 -1 -1 -1 -1 -2 -2 -2 -2 -3 -3 -3 -4 -4 -4 -4 -4 -4 -5 -5 -6 -6 -7 -7 -8 -8 -8 -8 -9 -9 -9 -9 -9 -9 -9 -9 -9 -9 -9 -9 -8
-1 -1 -1 -1 -1 -2 -2 -2 -2 -3 -3 -3 -3 -4 -4 -4 -5 -5 -5 -5 -5 -6 -6 -6 -7 -7 -8 -8 -8 -8 -9 -9 -9 -9 -9 -9 -9 -9 -9 -9 -9 -9 -8 -8
-1 -1 -1 -2 -2 -2 -2 -2 -3 -3 -4 -4 -4 -4 -5 -5 -5 -5 -5 -6 -6 -6 -7 -7 -7 -8 -8 -8 -9 -9 -9 -9 -10 -10 -10 -10 -10 -9 -9 -9 -9 -9 -8 -8
-2 -2 -2 -2 -3 -3 -3 -3 -4 -4 -4 -4 -4 -5 -5 -6 -6 -6 -6 -6 -6 -7 -7 -7 -8 -8 -9 -9 -9 -10 -10 -10 -10 -10 -10 -10 -10 -10 -9 -9 -9 -9 -8 -8
-2 -2 -3 -3 -3 -4 -4 -5 -5 -5 -5 -5 -5 -5 -6 -6 -6 -7 -7 -7 -7 -8 -8 -8 -9 -9 -9 -10 -10 -10 -10 -10 -10 -10 -10 -10 -10 -10 -9 -9 -9 -9 -8 -8
-3 -3 -3 -3 -4 -4 -5 -5 -6 -6 -6 -7 -7 -7 -7 -7 -7 -7 -8 -8 -8 -9 -9 -9 -10 -10 -10 -10 -11 -11 -11 -11 -10 -10 -10 -10 -10 -10 -9 -9 -9 -9 -8 -8
Wind_Speed
6 3 4 7 8 9 11 10 12 10 10 9 7 6 4 4 3 1 1 4 5 6 6 7 7 8 8 9 9 8 9 10 10 11 10 10 11 11 12 12 13 13 13 14
2 0 2 6 11 12 12 10 10 10 10 4 2 3 3 3 3 1 3 5 6 7 7 8 8 8 9 9 10 9 10 11 11 11 11 11 12 13 13 13 13 13 13 15
4 2 5 9 11 11 7 7 8 9 7 3 3 3 3 3 2 2 4 6 6 7 7 8 8 8 9 9 10 10 11 12 12 12 13 13 14 13 14 14 13 14 13 14
2 2 8 8 1 6 6 5 6 5 4 5 4 2 3 3 2 2 5 5 6 6 7 7 7 8 9 9 10 10 11 12 12 12 14 14 14 14 15 13 14 14 15 15
4 4 9 9 4 6 7 5 4 7 6 3 1 3 3 1 1 2 4 5 5 6 7 7 8 9 9 10 10 11 12 12 12 13 14 15 16 16 15 15 15 15 15 15
5 5 8 7 2 4 5 4 4 7 6 4 3 1 3 2 3 4 5 4 5 6 7 8 9 9 10 11 11 13 13 13 13 13 14 16 17 17 15 14 16 16 16 15
6 7 9 7 3 5 4 6 6 7 6 6 5 5 4 4 4 4 5 6 6 7 8 9 9 9 11 12 13 13 13 14 14 13 14 16 16 15 15 16 16 16 17 16
7 7 10 3 6 7 5 5 6 6 5 4 4 3 3 4 5 6 6 7 7 8 9 10 9 9 12 13 14 13 13 14 15 14 14 14 15 16 15 15 17 17 16 16
9 8 2 1 4 3 6 6 4 4 2 2 2 2 4 4 5 6 7 8 7 9 11 11 10 9 13 15 14 14 15 15 15 15 13 13 14 16 16 14 14 15 15 15
4 5 2 2 4 4 4 4 3 3 2 2 2 3 5 5 6 7 8 8 8 9 11 13 11 10 11 14 14 14 15 16 15 15 15 13 11 12 13 14 14 15 15 15
4 3 2 2 3 4 4 4 4 3 1 1 2 4 5 6 7 8 8 8 8 10 12 14 13 12 12 12 12 14 15 15 14 13 14 15 13 12 14 13 16 18 15 15
6 6 6 5 4 4 4 3 3 2 0 1 2 5 6 7 8 8 9 9 10 11 12 14 14 14 12 11 11 13 14 14 13 13 13 13 15 16 19 21 26 27 26 24
3 2 4 3 4 4 4 3 2 2 2 3 4 5 6 7 7 8 10 11 12 13 13 14 14 14 13 11 10 11 13 15 13 13 14 14 15 15 17 19 23 25 25 26
3 5 4 3 3 3 3 2 1 1 3 4 5 6 7 8 9 10 12 12 12 13 14 14 14 15 13 11 11 12 13 16 16 13 13 14 14 14 15 17 17 14 18 23
3 4 4 5 5 3 2 1 0 3 5 6 6 8 9 10 11 12 12 12 12 12 13 13 14 15 12 11 12 13 13 12 12 13 13 13 14 14 14 15 15 15 14 16
4 5 6 5 4 2 1 1 3 5 6 7 8 10 10 11 12 13 12 11 11 14 14 14 15 14 12 11 12 12 11 19 19 15 14 13 13 13 14 14 14 13 13 13
5 4 4 3 1 1 2 4 5 7 8 9 11 11 11 11 12 13 13 11 11 13 13 14 15 14 12 12 12 11 11 14 21 16 12 13 13 13 13 13 13 13 13 15
5 4 4 3 3 3 5 6 7 8 9 10 11 11 11 12 14 15 14 13 12 12 12 13 13 12 11 11 11 10 11 12 12 13 13 12 14 12 12 13 13 14 12 14
4 3 2 2 3 4 6 7 8 8 10 10 11 12 12 12 13 14 13 12 13 15 12 9 17 14 12 14 16 10 11 12 13 12 12 16 15 12 12 12 12 12 12 12
2 0 2 4 4 5 7 8 9 9 10 10 11 12 13 13 12 12 12 12 11 11 11 14 13 11 11 12 17 10 10 12 13 13 12 12 13 12 12 12 12 12 11 10
2 3 4 6 7 8 8 9 9 11 11 10 11 13 14 14 12 11 11 13 11 10 11 17 12 9 10 13 17 9 9 11 12 12 12 12 13 13 12 12 12 12 11 10
3 5 7 7 8 9 9 9 9 11 12 11 11 12 13 14 12 11 10 10 11 16 12 9 8 14 18 20 10 9 10 11 11 11 11 12 12 12 12 12 11 11 11 10
5 6 7 8 9 10 10 10 10 10 11 12 12 13 13 12 10 11 13 9 8 16 13 9 15 23 25 14 8 9 10 12 12 12 12 12 11 12 12 12 11 11 10 9
7 7 8 8 8 9 11 11 10 10 11 12 12 12 12 11 10 8 9 16 19 21 12 15 23 24 22 9 8 9 10 11 11 11 11 11 11 11 11 11 11 10 10 10
8 8 8 9 9 9 10 11 10 10 10 10 11 11 9 8 10 11 10 11 17 19 11 15 22 23 14 9 9 10 10 11 12 12 11 11 11 11 11 10 10 10 9 9
7 7 8 8 9 9 9 8 9 10 10 11 11 9 8 8 9 10 10 11 13 18 13 10 11 14 10 10 10 11 10 12 13 11 11 11 12 11 11 10 11 10 9 8
7 7 7 8 7 7 7 8 10 10 10 11 13 11 10 10 9 10 11 11 11 11 10 10 9 9 10 10 10 10 10 10 10 10 10 11 10 10 10 11 10 9 8 8
Wind_Direction
238 224 191 217 217 202 203 207 221 236 232 241 234 229 214 190 169 140 351 333 322 314 311 313 317 316 315 311 310 309 307 304 298 296 295 294 293 292 290 287 286 283 284 284
263 344 237 257 245 231 230 228 235 257 265 240 192 134 150 176 175 205 309 311 312 313 313 313 313 312 312 309 309 310 305 300 298 298 298 296 295 294 293 291 288 285 282 284
249 308 344 273 242 220 215 210 200 228 236 151 130 154 195 206 197 261 299 302 304 305 302 303 303 305 305 302 306 306 301 299 299 299 298 297 297 298 296 295 291 289 286 285
177 118 242 246 200 177 189 220 199 181 153 147 161 233 259 208 190 288 302 300 302 301 301 302 300 303 301 302 304 303 301 299 298 299 299 299 299 297 297 295 293 292 292 290
158 224 274 287 238 178 182 231 188 160 156 149 67 10 329 177 136 282 288 287 284 286 290 297 301 302 306 305 305 303 302 300 300 301 301 302 301 300 299 298 297 294 293 292
156 196 244 251 181 158 123 235 198 157 161 163 120 32 269 275 328 311 308 299 296 299 301 302 301 304 305 303 304 303 302 301 301 300 300 301 300 300 300 298 297 298 295 293
187 219 258 251 196 134 180 239 164 161 173 178 189 209 247 312 316 310 307 303 302 302 299 295 297 302 300 301 299 299 300 301 301 299 297 297 298 299 300 300 299 298 297 297
170 202 249 204 143 179 193 137 147 163 179 192 218 261 298 308 305 308 306 303 302 299 296 296 296 297 298 299 299 301 303 303 303 301 300 303 300 302 301 300 301 302 301 301
194 211 270 143 162 143 134 139 156 162 169 172 224 274 294 293 295 295 293 292 290 288 293 295 292 289 294 299 302 305 306 305 305 304 300 297 299 302 304 302 301 302 302 301
223 250 222 132 118 111 113 125 125 125 136 156 228 271 283 285 288 291 290 290 290 293 296 298 296 290 286 295 301 303 305 306 306 307 306 302 298 299 301 302 301 301 301 301
228 226 139 208 181 147 115 101 95 87 100 184 243 270 272 279 284 285 288 288 289 290 293 294 296 293 291 292 298 301 303 304 305 304 303 305 302 299 300 295 294 300 301 301
216 202 183 205 187 153 136 133 135 139 231 269 242 260 273 276 278 282 286 289 292 290 290 293 295 295 294 292 292 297 304 306 307 306 306 305 306 305 300 300 302 303 303 302
192 149 148 134 123 128 138 146 159 189 230 265 273 263 269 275 279 282 285 288 287 288 290 293 295 295 295 293 292 292 296 302 305 305 306 306 306 308 309 309 306 306 307 308
139 117 112 124 133 129 133 139 152 253 268 263 266 272 274 276 280 283 284 284 285 288 290 291 293 293 294 294 293 293 295 301 304 302 302 302 303 305 306 307 311 311 311 312
94 108 131 125 119 120 127 135 308 298 289 285 275 277 279 281 285 286 286 287 289 289 289 291 294 295 297 295 295 296 299 301 301 301 301 301 302 304 304 304 306 308 311 313
112 98 109 119 129 138 158 261 282 285 285 284 286 284 281 279 282 286 287 287 289 292 294 295 295 295 298 297 296 298 299 303 308 306 304 304 304 304 305 306 307 309 311 312
134 135 137 143 163 237 258 261 263 271 280 284 285 287 289 291 292 292 291 288 282 283 287 289 290 293 295 293 293 298 299 302 306 306 303 303 303 303 304 305 307 309 308 308
145 149 159 173 208 257 277 278 275 278 279 280 286 290 290 291 292 294 295 297 296 291 285 280 283 292 290 291 294 294 296 298 302 302 304 305 304 304 306 305 306 307 307 310
116 128 160 233 248 254 265 276 280 280 282 286 288 288 287 285 286 289 293 296 297 298 294 283 299 303 294 296 304 295 295 299 303 303 304 306 308 304 304 305 306 306 308 311
81 44 294 288 283 271 276 280 284 286 286 286 288 290 291 290 288 290 292 289 283 279 285 293 296 289 289 293 302 296 296 301 304 306 306 305 304 305 305 306 307 307 308 309
332 307 302 297 294 288 282 283 286 288 290 289 287 288 290 292 291 289 292 296 290 283 289 298 301 296 299 301 305 301 300 304 305 305 305 305 305 305 306 307 308 308 308 309
299 295 295 294 293 293 290 287 285 287 291 291 288 288 291 294 295 291 278 278 288 298 304 292 291 300 309 311 307 304 303 304 304 303 302 302 303 304 305 306 306 306 306 306
286 285 287 288 288 290 293 290 286 286 287 288 290 290 290 290 293 295 298 291 292 301 306 294 302 309 313 316 307 304 303 303 303 302 301 300 300 301 302 303 303 303 303 304
284 284 284 285 290 291 292 291 287 285 282 284 282 280 283 292 292 280 278 296 305 306 303 302 309 312 317 316 304 302 301 301 300 299 298 300 301 301 300 300 300 301 301 301
278 280 282 287 289 286 284 290 292 290 287 287 283 280 277 275 283 293 293 294 300 306 302 304 309 313 314 302 301 300 300 299 300 304 304 304 302 302 301 300 300 301 301 299
273 275 274 270 271 278 283 287 290 293 295 296 296 291 287 286 285 289 293 293 293 302 304 300 300 304 303 300 299 299 299 301 303 303 299 300 301 301 300 300 299 299 298 297
273 273 277 280 276 270 273 280 286 290 291 293 297 297 295 295 295 295 295 297 298 299 299 299 298 298 299 299 299 299 299 299 299 299 300 300 300 299 298 297 298 297 297 296
Height
1512 1511 1513 1513 1513 1516 1519 1517 1518 1511 1510 1505 1505 1505 1506 1507 1508 1508 1508 1508 1507 1505 1503 1500 1497 1494 1490 1487 1483 1479 1474 1469 1465 1460 1454 1449 1444 1438 1432 1427 1421 1415 1409 1403
1512 1511 1513 1514 1510 1509 1509 1509 1509 1506 1504 1501 1501 1502 1504 1505 1506 1506 1506 1505 1504 1501 1499 1496 1492 1489 1485 1481 1477 1473 1468 1463 1458 1452 1447 1441 1435 1429 1423 1417 1411 1405 1398 1392
1517 1515 1512 1512 1499 1499 1501 1500 1502 1503 1501 1500 1501 1502 1503 1503 1504 1504 1504 1502 1500 1498 1495 1492 1488 1485 1481 1476 1472 1467 1462 1457 1451 1445 1438 1432 1426 1420 1413 1406 1400 1393 1387 1381
1519 1515 1516 1497 1491 1492 1494 1495 1496 1496 1498 1499 1500 1501 1501 1502 1502 1502 1501 1499 1496 1494 1491 1488 1484 1480 1476 1472 1467 1461 1455 1449 1444 1437 1430 1423 1417 1410 1403 1397 1390 1383 1376 1370
1520 1518 1509 1495 1490 1491 1494 1494 1493 1495 1497 1498 1499 1499 1499 1500 1500 1499 1497 1495 1493 1490 1487 1484 1480 1476 1471 1466 1460 1455 1448 1442 1436 1429 1422 1414 1407 1401 1394 1387 1379 1373 1366 1360
1518 1515 1508 1491 1486 1486 1490 1493 1492 1492 1495 1497 1498 1501 1500 1498 1497 1495 1494 1492 1489 1486 1483 1479 1475 1470 1465 1459 1454 1448 1441 1434 1428 1422 1414 1407 1399 1392 1385 1378 1370 1363 1356 1351
1512 1510 1498 1485 1484 1486 1494 1489 1489 1490 1493 1494 1495 1497 1496 1495 1493 1492 1490 1488 1485 1482 1478 1474 1470 1465 1459 1453 1447 1441 1434 1427 1420 1414 1407 1399 1391 1384 1376 1369 1361 1354 1347 1341
1507 1508 1496 1482 1483 1486 1485 1485 1487 1489 1491 1492 1492 1492 1492 1491 1490 1488 1486 1484 1481 1477 1473 1469 1465 1459 1452 1446 1440 1433 1426 1418 1411 1405 1398 1391 1383 1375 1368 1361 1353 1345 1338 1332
1488 1485 1481 1479 1480 1481 1482 1485 1486 1488 1489 1489 1489 1489 1489 1488 1486 1484 1482 1479 1476 1472 1467 1463 1459 1453 1446 1439 1432 1425 1417 1410 1403 1395 1389 1382 1375 1367 1359 1353 1346 1339 1332 1325
1484 1480 1479 1479 1480 1481 1483 1484 1485 1486 1487 1487 1487 1486 1486 1484 1482 1480 1477 1474 1470 1466 1460 1456 1451 1446 1440 1433 1425 1417 1409 1402 1394 1387 1379 1373 1367 1360 1353 1346 1340 1333 1327 1320
1480 1478 1478 1479 1479 1480 1482 1482 1483 1484 1484 1484 1484 1483 1482 1480 1478 1476 1472 1469 1465 1460 1454 1449 1443 1438 1432 1426 1418 1410 1402 1394 1387 1379 1372 1365 1358 1354 1347 1341 1337 1330 1322 1317
1475 1473 1475 1476 1477 1479 1480 1481 1482 1482 1482 1482 1482 1480 1479 1476 1474 1471 1467 1463 1458 1453 1448 1442 1436 1430 1424 1418 1411 1403 1395 1387 1380 1372 1365 1358 1351 1344 1339 1335 1329 1323 1318 1312
1470 1470 1472 1474 1476 1477 1478 1479 1480 1480 1480 1480 1478 1477 1475 1472 1469 1465 1461 1456 1451 1446 1440 1434 1428 1422 1416 1410 1403 1396 1389 1381 1373 1366 1359 1352 1346 1339 1330 1324 1320 1315 1310 1304
1468 1470 1471 1473 1474 1476 1477 1478 1478 1478 1478 1476 1475 1473 1470 1466 1462 1458 1454 1449 1444 1438 1433 1427 1420 1414 1409 1402 1395 1389 1382 1375 1368 1360 1354 1347 1341 1335 1327 1319 1312 1305 1301 1297
1467 1468 1470 1472 1473 1474 1475 1476 1475 1475 1474 1472 1470 1467 1464 1460 1455 1451 1447 1442 1436 1430 1425 1419 1412 1406 1401 1394 1388 1381 1374 1367 1361 1354 1348 1342 1336 1329 1322 1316 1309 1301 1295 1289
1466 1467 1469 1470 1472 1472 1473 1472 1472 1470 1469 1466 1464 1460 1457 1453 1448 1443 1439 1434 1428 1422 1416 1411 1404 1399 1393 1387 1380 1373 1367 1361 1355 1348 1342 1336 1330 1323 1317 1311 1304 1298 1291 1285
1464 1466 1467 1469 1469 1470 1470 1469 1468 1466 1463 1460 1457 1453 1449 1444 1439 1434 1430 1426 1420 1415 1409 1404 1397 1391 1386 1380 1373 1366 1360 1353 1348 1342 1336 1330 1324 1318 1312 1306 1300 1293 1287 1282
1463 1465 1466 1467 1467 1466 1466 1465 1463 1460 1457 1454 1450 1446 1441 1437 1432 1426 1421 1416 1411 1406 1402 1397 1390 1384 1378 1373 1366 1360 1353 1347 1342 1336 1330 1324 1318 1313 1307 1301 1295 1289 1283 1278
1462 1463 1464 1464 1464 1463 1461 1459 1457 1454 1451 1447 1443 1438 1433 1429 1424 1419 1414 1408 1403 1397 1392 1388 1382 1377 1371 1366 1360 1353 1347 1341 1336 1330 1324 1318 1312 1307 1301 1296 1290 1285 1279 1274
1460 1461 1461 1460 1459 1458 1456 1453 1450 1447 1444 1440 1435 1430 1425 1421 1416 1411 1406 1401 1396 1391 1385 1380 1374 1369 1363 1358 1352 1347 1341 1336 1329 1323 1318 1312 1306 1301 1296 1291 1286 1280 1275 1271
1458 1457 1457 1455 1454 1452 1450 1447 1443 1439 1436 1432 1427 1422 1417 1412 1408 1404 1398 1392 1388 1384 1378 1373 1367 1362 1356 1351 1346 1341 1335 1329 1323 1317 1312 1306 1301 1296 1291 1286 1281 1276 1272 1267
1454 1453 1452 1450 1448 1445 1443 1440 1436 1432 1428 1424 1420 1415 1410 1404 1400 1396 1391 1387 1381 1376 1370 1365 1360 1355 1349 1345 1339 1334 1328 1323 1317 1311 1306 1301 1296 1291 1286 1281 1276 1272 1268 1263
1450 1448 1446 1444 1441 1438 1435 1432 1429 1424 1420 1416 1412 1407 1403 1398 1394 1389 1382 1378 1374 1369 1363 1358 1353 1348 1343 1338 1332 1327 1322 1316 1311 1306 1300 1295 1291 1286 1281 1276 1272 1268 1264 1260
1444 1442 1440 1438 1435 1431 1427 1424 1421 1417 1413 1409 1405 1401 1396 1391 1385 1382 1377 1371 1367 1361 1356 1351 1346 1341 1336 1330 1325 1320 1315 1310 1305 1300 1295 1290 1285 1281 1276 1272 1268 1264 1260 1256
1439 1436 1434 1431 1428 1424 1420 1416 1412 1408 1404 1400 1396 1393 1389 1384 1379 1373 1369 1363 1359 1353 1348 1343 1338 1333 1328 1323 1318 1313 1308 1304 1299 1294 1289 1285 1280 1276 1271 1267 1263 1259 1256 1252
1433 1430 1427 1425 1421 1418 1414 1410 1405 1401 1397 1392 1387 1384 1380 1376 1371 1366 1360 1355 1350 1345 1340 1335 1330 1326 1321 1316 1311 1307 1302 1297 1292 1288 1283 1279 1275 1270 1266 1262 1259 1255 1252 1249
1426 1423 1420 1417 1414 1411 1407 1403 1398 1394 1389 1385 1379 1375 1371 1367 1362 1357 1352 1347 1342 1337 1332 1327 1323 1318 1314 1309 1305 1300 1296 1291 1287 1282 1278 1273 1269 1265 1261 1258 1255 1251 1248 1245